GPS BIIF-9 (PRN 26)

Last updated on Wed Sep 17 2025 00:03:17 GMT+0000 (Coordinated Universal Time)

1 40534U 15013A 25258.84049545 .00000005 00000+0 00000+0 0 9990 2 40534 53.2192 215.5268 0102365 36.2306 324.4342 2.00567641 76327
UTC large
Height (km)
Speed (km/s)
/
Latitude / Longitude
Inclination (degrees)
Orbital Period (minutes)
Azimuth
Elevation
Range (km)
Doppler Factor

Next 0 passes for location: London (51.5072 / 0.1276)

Sorry there are no passes over London.